Santa Genoveva Airport
SBGO : rendu visible

Aérodrome :











RETROUVEZ-NOUS SUR...

 
LOGIN :

S'inscrire | Disclaimer

   EN    FR    IT 

 









Légende :    VFR   VFR Marginal   IFR   IFR Intensif   IFR Très Intensif
Visi : 
Plafond : 
>= 8 km
>= 3000ft
5 à 8 km
1000 à 3000 ft
1500m à 5 km
500 à 1000 ft
800 à 1500m
200 à 500 ft
< 800m
< 200 ft
Symboles :   Orages  Brouillard  Fortes neiges  Fortes précipitations  Vent > 20 kt






- Altitude de l'aérodrome : 2450 ft
- Code IATA : GYN


SBGO - Santa Genoveva

DERNIER METAR :
  • 270900Z 35002KT CAVOK 19/14 Q1015

METARs EXPIRÉS :
  • 270800Z 33002KT CAVOK 20/14 Q1014
  • 270700Z 33003KT CAVOK 20/15 Q1014
  • 270600Z 14005KT CAVOK 22/14 Q1014

TAF TAF SBGO
Valide du 27 à 06h jusqu'au 28 à 06h UTC


270130Z 2706/2806 05005KT CAVOK TN20/2709Z TX36/2717Z
BECMG 2709/2711 02007KT
TEMPO 2712/2717 35003KT FEW040
BECMG 2718/2720 06005KT RMK PGN
FIR SBBS / Amérique du Sud



MET'MAP, la Météo Aéronautique d'un coup d'oeil ! - Copyright ORBIFLY Décembre 2007 - Disclaimer

ORBIFLY MET'MAP TEAM :

Programmation & Développement : Alexandra Zaïnal
Sur une idée originale de : Baudouin d'Aumeries
Assistance à la programmation : Marc-Olivier Méhu
Soutien technique & logistique : Manuel Goepfert

Contact : metmap@orbifly.com




SOURCES & CREDITS :

   NOAA       Earth
Advisory